Regional Weather Roundup
Issued by NWS

Home | Current Version | Previous Version | Text Only | Print | Product List | Glossary Off
Versions: 1 2 3 4 5 6 7 8 9 10 11 12 13 14 15 16 17 18 19 20 21 22 23 24 25 26 27 28 29 30 31 32 33 34 35 36 37 38 39 40 41 42 43 44 45 46 47 48 49 50

000
ASUS43 KOAX 270310
RWRNE

WEATHER ROUNDUP FOR NEBRASKA
NATIONAL WEATHER SERVICE OMAHA NE
900 PM CST MON JAN 26 2015

NOTES: SATELLITE DATA IS BEING USED TO AUGMENT CLOUD COVER ABOVE
       12000 FEET.
       "FAIR" INDICATES FEW OR NO CLOUDS BELOW 12,000 FEET WITH NO
       SIGNIFICANT WEATHER AND/OR OBSTRUCTIONS TO VISIBILITY.

  * THESE STATIONS DO NOT REPORT WEATHER SUCH AS RAIN...SNOW OR FOG.

NEZ001>004-019>022-054>056-270400-
NEBRASKA PANHANDLE

CITY           SKY/WX    TMP DP  RH WIND       PRES   REMARKS
SCOTTSBLUFF    CLEAR     43  31  62 NW9       30.12R
ALLIANCE       CLEAR     34  29  82 W9        30.08F WCI  27
CHADRON        CLEAR     37  30  75 SW9       30.05S WCI  30
KIMBALL        PTCLDY    39  28  62 SW9       30.16R WCI  33
SIDNEY         CLEAR     38  28  67 W12       30.15R WCI  30
$$

NEZ057>060-069>072-079>082-270400-
SOUTHWEST NEBRASKA

CITY           SKY/WX    TMP DP  RH WIND       PRES   REMARKS
NORTH PLATTE   CLEAR     30  26  85 CALM      30.08R
IMPERIAL       CLEAR     45  28  51 W9        30.11S
LEXINGTON      CLEAR     36  28  72 W6        30.06S WCI  31
MCCOOK         CLEAR     47  29  49 W5        30.09R
OGALLALA       CLEAR     36  30  80 W6        30.10S WCI  31
$$

NEZ005>010-023>029-035>040-094-270400-
NORTH CENTRAL NEBRASKA

CITY           SKY/WX    TMP DP  RH WIND       PRES   REMARKS
VALENTINE      CLEAR     35  29  78 W6        30.02S WCI  30
AINSWORTH      CLEAR     39  31  72 CALM      30.02S
BROKEN BOW     CLEAR     33  27  78 CALM      30.04S
O`NEILL        CLEAR     35  31  83 SW6       30.04R WCI  30
ORD            CLEAR     32  27  81 SW6       30.03S WCI  26
THEDFORD       CLEAR     42  32  68 SW9       30.05S
$$

NEZ041-046>049-061>064-073>077-083>087-270400-
SOUTH CENTRAL NEBRASKA

CITY           SKY/WX    TMP DP  RH WIND       PRES   REMARKS
GRAND ISLAND   CLEAR     35  28  75 CALM      30.05R
AURORA         CLEAR     33  27  76 W6        30.05R WCI  28
HASTINGS       CLEAR     38  27  64 CALM      30.04S
HEBRON         CLEAR     38  28  68 CALM      30.05R
HOLDREGE       CLEAR     40  27  59 W6        30.07R
KEARNEY *      PTCLDY    39  28  65 W3        30.06R
YORK           CLEAR     39  28  65 NW5       30.05R
$$

NEZ011>018-030>034-042>045-270400-
NORTHEAST NEBRASKA

CITY           SKY/WX    TMP DP  RH WIND       PRES   REMARKS
NORFOLK        CLEAR     40  31  70 W5        30.02R
ALBION         CLEAR     32  26  79 NW5       30.04R WCI  27
BLAIR          CLEAR     44  34  67 NW6       30.01R
COLUMBUS *     CLEAR     30  23  74 W6        30.05R WCI  24
FREMONT        CLEAR     37  31  81 W7        30.02R WCI  31
TEKAMAH        CLEAR     37  31  78 NW6       30.01R WCI  32
WAYNE          CLEAR     38  32  80 CALM      30.02R
$$

NEZ050>053-065>068-078-088>093-270400-
SOUTHEAST NEBRASKA

CITY           SKY/WX    TMP DP  RH WIND       PRES   REMARKS
LINCOLN        CLEAR     38  28  67 CALM      30.04S
OMAHA EPPLEY   PTCLDY    42  33  70 NE6       30.01R
BEATRICE       CLEAR     37  28  68 CALM      30.03S
FALLS CITY     PTCLDY    39  29  67 NW9       30.01R WCI  33
NEBRASKA CITY  CLEAR     43  28  55 NW10      30.01S
PLATTSMOUTH    CLEAR     41  30  65 W8        30.01R
$$

NEZ044-045-051>053-067-270400-
OMAHA AREA

CITY           SKY/WX    TMP DP  RH WIND       PRES   REMARKS
OMAHA EPPLEY   PTCLDY    42  33  70 NE6       30.01R
BLAIR          CLEAR     44  34  67 NW6       30.01R
FREMONT        CLEAR     37  31  81 W7        30.02R WCI  31
MILLARD        CLEAR     46  34  61 NW6       30.01R
OFFUTT AFB     CLEAR     42  33  70 W8        30.00R
PLATTSMOUTH    CLEAR     41  30  65 W8        30.01R
WAHOO          FAIR      40  31  70 NW6       30.02R
$$



USA.gov is the U.S. government's official web portal to all federal, state and local government web resources and services.